Location: Centerville
(32.8776°N, 96.6203°W)
Time: 02:26:21
(UTC+00:00)

Ariane Rocket - Pass Details

Date: 17 June 2021
Orbit: 759 x 770 km, 98.7° (Epoch: 27 July)

Event Time Altitude Azimuth Distance (km) Brightness Sun altitude
Exits shadow 02:50:46 13° 168° (SSE) 2,129 4.8 -13.6°
Maximum altitude 02:55:25 86° 256° (WSW) 776 3.0 -14.4°
Drops below altitude 10° 03:00:32 10° 346° (NNW) 2,317 6.3 -15.2°
Sets 03:02:51 0° 347° (NNW) 3,248 7.2 -15.6°
